Tracking 18987 objects as of 24-Feb-2018
HD Live streaming from Space Station
objects crossing your sky now

TERRIERS

Track TERRIERS now!
10-day predictions
TERRIERS is classified as:


NORAD ID: 25735
Int'l Code: 1999-026A
Perigee: 430.8 km
Apogee: 437.6 km
Inclination: 97.2 °
Period: 93.1 minutes
Semi major axis: 6805 km
RCS: 0.4968 m2 (medium)
Launch date: May 18, 1999
Source: United States (US)
Launch site: Pegasus launched from Western Range Air Space (WRAS)
aabbcc
Your satellite tracking list
Your tracking list is empty




NASA's NSSDC Master Catalog

Two Line Element Set (TLE):
1 25735U 99026A   18055.23498867 +.00001805 +00000-0 +38195-4 0  9998
2 25735 097.2028 223.9490 0005059 152.3424 207.8096 15.46468398045174
Source of the keplerian elements: AFSPC